Location: Brantley
(31.5822°N, 86.2569°W)
Time: 08:06:46
(UTC+00:00)

Transit 2A Rocket - Pass Details

Date: 20 February 2026
Orbit: 583 x 900 km, 66.7° (Epoch: 8 March)

Event Time Altitude Azimuth Distance (km) Brightness Sun altitude
Rises 20:24:09 0° 200° (SSW) 3,422 9.2 35.2°
Reaches altitude 10° 20:26:35 10° 199° (SSW) 2,517 8.7 34.9°
Maximum altitude 20:32:29 79° 113° (ESE) 915 5.9 34.0°
Drops below altitude 10° 20:38:31 10° 28° (NNE) 2,572 7.3 33.0°
Sets 20:41:01 0° 27° (NNE) 3,503 7.9 32.6°
